Location: Bagnolo San Vito
(45.0833°N, 10.8833°E)
Time: 00:15:21
(UTC+00:00)

Okean-O - Pass Details

Date: 03 March 2021
Orbit: 639 x 640 km, 98.2° (Epoch: 17 April)

Event Time Altitude Azimuth Distance (km) Brightness Sun altitude
Rises 18:20:55 0° 177° (S) 2,931 6.0 -13.9°
Reaches altitude 10° 18:23:09 10° 183° (S) 2,027 5.2 -14.3°
Maximum altitude 18:27:28 52° 260° (W) 798 3.5 -15.0°
Drops below altitude 10° 18:31:49 10° 337° (NNW) 2,043 5.6 -15.8°
Sets 18:34:05 0° 342° (NNW) 2,957 6.4 -16.2°
